WMT6MM EDDS-LRCL

Flight info

Callsign WMT6MM
Flight time N/A
Altitude 35000
Route ABTAL4H/07 ABTAL L173 RIXED Y161 RIDAR DCT MIQ DCT ALUTU DCT BIBAG Q104 AKIMA DCT FMD DCT ABLOM DCT ERGOM DCT MEGIK DCT ATSOS
Aircraft A20N/M-SDE1E2E3FGIJ1J4RWXY/LB1

Departure

Time N/A
Airport Stuttgart Airport (EDDS)

Arrival

Time 2026-04-26 17:30
Airport Avram Iancu Cluj International Airport (LRCL)
Time Latitude Longitude Altitude Speed Heading
2026-04-26 16:11 48.84177 10.26671 24778 ft 435 kts 97°
2026-04-26 16:11 48.83807 10.31242 25344 ft 438 kts 97°
2026-04-26 16:11 48.83426 10.35846 25878 ft 442 kts 99°
2026-04-26 16:12 48.82623 10.40360 26397 ft 445 kts 113°
2026-04-26 16:12 48.81148 10.44477 26901 ft 446 kts 127°
2026-04-26 16:12 48.76966 10.51461 27893 ft 450 kts 136°
2026-04-26 16:13 48.75531 10.53743 28207 ft 453 kts 136°
2026-04-26 16:13 48.73351 10.57212 28673 ft 456 kts 136°
2026-04-26 16:13 48.71159 10.60702 29125 ft 459 kts 136°
2026-04-26 16:13 48.68952 10.64216 29568 ft 462 kts 136°
2026-04-26 16:14 48.66728 10.67753 29997 ft 465 kts 136°
2026-04-26 16:14 48.64486 10.71314 30397 ft 469 kts 136°
2026-04-26 16:14 48.60348 10.78990 31162 ft 478 kts 120°
2026-04-26 16:15 48.59017 10.83601 31576 ft 481 kts 108°
2026-04-26 16:15 48.58325 10.88539 32061 ft 481 kts 96°
2026-04-26 16:15 48.58182 10.93570 32585 ft 480 kts 90°
2026-04-26 16:16 48.58241 11.03612 33619 ft 477 kts 89°
2026-04-26 16:16 48.58212 11.08613 34121 ft 476 kts 90°
2026-04-26 16:16 48.58139 11.13600 34549 ft 475 kts 91°
2026-04-26 16:16 48.58039 11.18584 34932 ft 474 kts 91°
2026-04-26 16:17 48.57927 11.23558 35159 ft 473 kts 91°
2026-04-26 16:17 48.57809 11.28516 35209 ft 472 kts 91°
2026-04-26 16:17 48.57568 11.38419 35208 ft 472 kts 91°
2026-04-26 16:18 48.57195 11.53216 35208 ft 473 kts 91°
2026-04-26 16:19 48.55837 11.67940 35208 ft 474 kts 102°
2026-04-26 16:20 48.53711 11.82501 35204 ft 474 kts 102°
2026-04-26 16:20 48.51572 11.97052 35205 ft 474 kts 102°
2026-04-26 16:21 48.50133 12.06750 35203 ft 474 kts 102°
2026-04-26 16:21 48.48683 12.16445 35203 ft 474 kts 103°
2026-04-26 16:22 48.47217 12.26143 35205 ft 475 kts 103°
2026-04-26 16:22 48.45744 12.35836 35203 ft 475 kts 103°
2026-04-26 16:23 48.44261 12.45537 35202 ft 475 kts 103°
2026-04-26 16:23 48.42769 12.55236 35201 ft 476 kts 103°
2026-04-26 16:24 48.41269 12.64934 35200 ft 476 kts 103°
2026-04-26 16:24 48.40011 12.74698 35196 ft 475 kts 95°
2026-04-26 16:25 48.39991 12.84617 35199 ft 474 kts 86°
2026-04-26 16:25 48.40302 12.94538 35192 ft 475 kts 86°
2026-04-26 16:26 48.40590 13.04457 35193 ft 475 kts 86°
2026-04-26 16:26 48.40867 13.14314 35192 ft 475 kts 86°
2026-04-26 16:27 48.41139 13.24252 35182 ft 475 kts 86°
2026-04-26 16:27 48.41081 13.34185 35178 ft 476 kts 96°
2026-04-26 16:28 48.40282 13.44079 35176 ft 476 kts 96°
2026-04-26 16:28 48.39500 13.53989 35178 ft 477 kts 96°
2026-04-26 16:29 48.38709 13.63890 35177 ft 477 kts 96°
2026-04-26 16:29 48.37906 13.73780 35181 ft 478 kts 97°
2026-04-26 16:30 48.37090 13.83710 35182 ft 478 kts 97°
2026-04-26 16:30 48.36264 13.93646 35185 ft 479 kts 97°
2026-04-26 16:31 48.35430 14.03585 35183 ft 479 kts 97°
2026-04-26 16:31 48.34586 14.13528 35182 ft 480 kts 97°
2026-04-26 16:32 48.33878 14.21792 35183 ft 480 kts 97°
2026-04-26 16:32 48.32871 14.33427 35182 ft 480 kts 97°
2026-04-26 16:33 48.32000 14.43385 35181 ft 481 kts 97°
2026-04-26 16:33 48.31120 14.53343 35180 ft 482 kts 97°
2026-04-26 16:34 48.30229 14.63316 35182 ft 482 kts 97°
2026-04-26 16:34 48.29327 14.73318 35186 ft 483 kts 98°
2026-04-26 16:35 48.28416 14.83328 35185 ft 484 kts 98°
2026-04-26 16:35 48.27494 14.93351 35191 ft 485 kts 98°
2026-04-26 16:36 48.26562 15.03379 35191 ft 486 kts 98°
2026-04-26 16:36 48.25619 15.13427 35197 ft 486 kts 98°
2026-04-26 16:37 48.24667 15.23490 35198 ft 487 kts 98°
2026-04-26 16:37 48.23867 15.31858 35198 ft 488 kts 98°
2026-04-26 16:38 48.22731 15.43631 35203 ft 489 kts 98°
2026-04-26 16:38 48.21754 15.53656 35210 ft 489 kts 98°
2026-04-26 16:39 48.20763 15.63740 35213 ft 490 kts 98°
2026-04-26 16:39 48.19760 15.73839 35211 ft 490 kts 98°
2026-04-26 16:40 48.18748 15.83942 35215 ft 491 kts 98°
2026-04-26 16:40 48.17725 15.94053 35213 ft 491 kts 99°
2026-04-26 16:41 48.16693 16.04171 35213 ft 491 kts 99°
2026-04-26 16:41 48.15652 16.14289 35215 ft 492 kts 99°
2026-04-26 16:42 48.14599 16.24425 35210 ft 492 kts 99°
2026-04-26 16:42 48.13538 16.34550 35207 ft 493 kts 99°
2026-04-26 16:43 48.12467 16.44681 35210 ft 493 kts 99°
2026-04-26 16:43 48.11387 16.54822 35210 ft 493 kts 99°
2026-04-26 16:44 48.10309 16.64957 35211 ft 494 kts 98°
2026-04-26 16:44 48.09473 16.75161 35210 ft 494 kts 96°
2026-04-26 16:45 48.08688 16.85377 35210 ft 495 kts 97°
2026-04-26 16:45 48.07859 16.95590 35211 ft 495 kts 97°
2026-04-26 16:46 48.07009 17.05818 35214 ft 496 kts 97°
2026-04-26 16:46 48.05684 17.15921 35215 ft 496 kts 103°
2026-04-26 16:47 48.04165 17.25971 35205 ft 496 kts 103°
2026-04-26 16:47 48.02641 17.36037 35209 ft 497 kts 103°
2026-04-26 16:48 48.01116 17.46028 35212 ft 497 kts 103°
2026-04-26 16:48 47.99569 17.56089 35210 ft 497 kts 103°
2026-04-26 16:49 47.98011 17.66163 35213 ft 498 kts 103°
2026-04-26 16:49 47.96443 17.76231 35211 ft 498 kts 103°
2026-04-26 16:50 47.94866 17.86303 35214 ft 499 kts 103°
2026-04-26 16:50 47.93279 17.96373 35213 ft 499 kts 103°
2026-04-26 16:51 47.91683 18.06442 35210 ft 499 kts 103°
2026-04-26 16:51 47.90077 18.16511 35209 ft 499 kts 103°
2026-04-26 16:52 47.88998 18.23239 35207 ft 499 kts 104°
2026-04-26 16:52 47.86837 18.36639 35204 ft 500 kts 104°
2026-04-26 16:53 47.85203 18.46695 35196 ft 500 kts 104°
2026-04-26 16:53 47.83559 18.56755 35194 ft 500 kts 104°
2026-04-26 16:54 47.81905 18.66814 35184 ft 501 kts 104°
2026-04-26 16:54 47.80244 18.76806 35194 ft 501 kts 105°
2026-04-26 16:55 47.78447 18.86878 35184 ft 501 kts 105°
2026-04-26 16:55 47.76652 18.96888 35176 ft 501 kts 105°
2026-04-26 16:56 47.73960 19.11903 35178 ft 501 kts 105°
2026-04-26 16:57 47.72461 19.20218 35174 ft 502 kts 105°
2026-04-26 16:57 47.70137 19.33027 35184 ft 502 kts 105°
2026-04-26 16:58 47.68929 19.39652 35173 ft 502 kts 105°
2026-04-26 16:59 47.65869 19.56322 35162 ft 502 kts 105°
2026-04-26 17:00 47.62173 19.76261 35143 ft 501 kts 105°
2026-04-26 17:00 47.59074 19.92810 35145 ft 501 kts 105°
2026-04-26 17:01 47.57505 20.01140 35141 ft 501 kts 106°
2026-04-26 17:01 47.55623 20.11073 35135 ft 501 kts 106°
2026-04-26 17:02 47.53729 20.21026 35138 ft 503 kts 106°
2026-04-26 17:02 47.51838 20.30903 35143 ft 502 kts 106°
2026-04-26 17:03 47.49929 20.40827 35141 ft 502 kts 106°
2026-04-26 17:03 47.48012 20.50743 35140 ft 502 kts 106°
2026-04-26 17:04 47.46085 20.60653 35140 ft 501 kts 106°
2026-04-26 17:04 47.44153 20.70542 35134 ft 500 kts 106°
2026-04-26 17:05 47.42216 20.80402 35127 ft 500 kts 106°
2026-04-26 17:05 47.40268 20.90273 34857 ft 502 kts 106°
2026-04-26 17:06 47.39288 20.95218 34616 ft 502 kts 106°
2026-04-26 17:06 47.38306 21.00164 34373 ft 502 kts 107°
2026-04-26 17:06 47.37320 21.05113 34140 ft 503 kts 107°
2026-04-26 17:06 47.36332 21.10065 33867 ft 504 kts 107°
2026-04-26 17:07 47.35339 21.15021 33590 ft 503 kts 107°
2026-04-26 17:07 47.34354 21.19932 33324 ft 504 kts 107°
2026-04-26 17:07 47.33350 21.24919 33052 ft 504 kts 107°
2026-04-26 17:07 47.32352 21.29870 32790 ft 504 kts 107°
2026-04-26 17:08 47.31349 21.34829 32530 ft 504 kts 107°
2026-04-26 17:08 47.30346 21.39785 32273 ft 505 kts 106°
2026-04-26 17:08 47.29528 21.44807 32015 ft 505 kts 101°
2026-04-26 17:08 47.28877 21.49894 31761 ft 505 kts 99°
2026-04-26 17:09 47.28253 21.54983 31511 ft 505 kts 99°
2026-04-26 17:09 47.27827 21.58358 31345 ft 506 kts 100°
2026-04-26 17:09 47.26932 21.65155 30770 ft 505 kts 101°
2026-04-26 17:09 47.26240 21.70231 29903 ft 507 kts 101°
2026-04-26 17:10 47.25542 21.75260 28837 ft 509 kts 101°
2026-04-26 17:10 47.24831 21.80338 28144 ft 503 kts 101°
2026-04-26 17:10 47.24130 21.85324 27704 ft 491 kts 101°
2026-04-26 17:10 47.23444 21.90196 27279 ft 480 kts 101°
2026-04-26 17:11 47.22773 21.94945 27165 ft 472 kts 101°
2026-04-26 17:11 47.22100 21.99707 27153 ft 479 kts 101°
2026-04-26 17:11 47.21420 22.04500 27154 ft 478 kts 101°
2026-04-26 17:11 47.20738 22.09292 27158 ft 478 kts 101°
2026-04-26 17:12 47.19374 22.18824 26406 ft 476 kts 101°
2026-04-26 17:12 47.18686 22.23605 25516 ft 479 kts 100°
2026-04-26 17:13 47.17293 22.33245 23817 ft 481 kts 100°
2026-04-26 17:13 47.16599 22.38021 23094 ft 475 kts 100°
2026-04-26 17:13 47.15230 22.47395 21682 ft 463 kts 100°
2026-04-26 17:14 47.14557 22.51990 20995 ft 457 kts 100°
2026-04-26 17:14 47.13228 22.61018 19655 ft 447 kts 100°
2026-04-26 17:14 47.12573 22.65451 18996 ft 442 kts 100°
2026-04-26 17:15 47.11280 22.74167 17654 ft 431 kts 100°
2026-04-26 17:15 47.10643 22.78443 16954 ft 426 kts 100°
2026-04-26 17:15 47.10013 22.82661 16277 ft 421 kts 100°
2026-04-26 17:16 47.09388 22.86828 15624 ft 416 kts 100°
2026-04-26 17:16 47.08770 22.90944 14973 ft 411 kts 100°
2026-04-26 17:16 47.08158 22.95008 14345 ft 406 kts 100°
2026-04-26 17:16 47.07551 22.99030 13710 ft 401 kts 100°
2026-04-26 17:17 47.06950 23.03002 13053 ft 396 kts 100°
2026-04-26 17:17 47.06354 23.06925 12380 ft 392 kts 100°
2026-04-26 17:17 47.05765 23.10807 11747 ft 388 kts 101°
2026-04-26 17:17 47.05181 23.14639 11141 ft 383 kts 101°
2026-04-26 17:18 47.04604 23.18409 10518 ft 372 kts 101°
2026-04-26 17:18 47.04053 23.21997 10264 ft 349 kts 101°
2026-04-26 17:18 47.03536 23.25352 10059 ft 327 kts 101°
2026-04-26 17:18 47.03048 23.28521 9700 ft 313 kts 101°
2026-04-26 17:19 47.02118 23.34583 8963 ft 299 kts 101°
2026-04-26 17:19 47.01666 23.37524 8613 ft 292 kts 101°
2026-04-26 17:19 47.01225 23.40378 8269 ft 283 kts 101°
2026-04-26 17:20 47.00792 23.43168 7942 ft 280 kts 101°
2026-04-26 17:20 47.00507 23.45001 7718 ft 278 kts 101°
2026-04-26 17:20 46.99941 23.48642 7281 ft 275 kts 102°
2026-04-26 17:20 46.99517 23.51362 6943 ft 273 kts 102°
2026-04-26 17:21 46.99095 23.54061 6626 ft 271 kts 102°
2026-04-26 17:21 46.98675 23.56742 6289 ft 270 kts 102°
2026-04-26 17:21 46.98258 23.59406 5961 ft 268 kts 102°
2026-04-26 17:21 46.97838 23.62082 5629 ft 279 kts 102°
2026-04-26 17:22 46.97383 23.64987 5300 ft 303 kts 102°
2026-04-26 17:22 46.96911 23.67983 5228 ft 298 kts 102°
2026-04-26 17:22 46.96449 23.70897 5085 ft 290 kts 102°
2026-04-26 17:22 46.95996 23.73756 4712 ft 288 kts 102°
2026-04-26 17:23 46.95544 23.76601 4318 ft 286 kts 102°
2026-04-26 17:23 46.95095 23.79424 3888 ft 285 kts 102°
2026-04-26 17:23 46.94650 23.82221 3595 ft 278 kts 102°
2026-04-26 17:23 46.94214 23.84967 3506 ft 281 kts 102°
2026-04-26 17:24 46.93484 23.87582 3499 ft 275 kts 126°
2026-04-26 17:24 46.92110 23.89348 3501 ft 256 kts 155°
2026-04-26 17:24 46.90501 23.90211 3499 ft 238 kts 167°
2026-04-26 17:24 46.88931 23.90795 3437 ft 228 kts 169°
2026-04-26 17:25 46.87422 23.91348 3350 ft 220 kts 168°
2026-04-26 17:25 46.85952 23.91896 3200 ft 217 kts 176°
2026-04-26 17:25 46.84548 23.91496 3025 ft 202 kts 220°
2026-04-26 17:25 46.83693 23.90002 2989 ft 183 kts 248°
2026-04-26 17:26 46.83228 23.88387 3008 ft 163 kts 255°
2026-04-26 17:26 46.82892 23.86900 2995 ft 146 kts 257°
2026-04-26 17:26 46.82597 23.85588 2984 ft 128 kts 258°
2026-04-26 17:26 46.82304 23.84205 3055 ft 141 kts 259°
2026-04-26 17:27 46.82048 23.82942 3044 ft 118 kts 263°
2026-04-26 17:27 46.81926 23.81766 3042 ft 119 kts 261°
2026-04-26 17:27 46.81591 23.80674 2909 ft 118 kts 249°
2026-04-26 17:27 46.81219 23.79509 2762 ft 133 kts 256°
2026-04-26 17:28 46.80978 23.78286 2540 ft 122 kts 262°
2026-04-26 17:28 46.80715 23.77114 2197 ft 123 kts 255°
2026-04-26 17:28 46.80412 23.75944 2023 ft 122 kts 257°
2026-04-26 17:28 46.80166 23.74737 1804 ft 124 kts 257°
2026-04-26 17:29 46.79865 23.73558 1601 ft 125 kts 258°
2026-04-26 17:29 46.79693 23.72753 1477 ft 126 kts 260°
2026-04-26 17:29 46.79350 23.71122 1288 ft 123 kts 258°
2026-04-26 17:29 46.79083 23.69949 1115 ft 118 kts 258°
2026-04-26 17:30 46.78851 23.68872 1043 ft 88 kts 253°
2026-04-26 17:30 46.78727 23.68320 1042 ft 50 kts 251°
2026-04-26 17:30 46.78620 23.67846 1042 ft 48 kts 251°
2026-04-26 17:30 46.78516 23.67408 1042 ft 38 kts 252°
2026-04-26 17:31 46.78498 23.67324 1042 ft 7 kts 252°
2026-04-26 17:31 46.78476 23.67226 1042 ft 13 kts 246°
2026-04-26 17:31 46.78394 23.67203 1042 ft 14 kts 156°
2026-04-26 17:31 46.78351 23.67269 1042 ft 6 kts 116°
2026-04-26 17:32 46.78342 23.67360 1042 ft 12 kts 85°
2026-04-26 17:32 46.78361 23.67502 1042 ft 17 kts 76°
2026-04-26 17:32 46.78398 23.67673 1042 ft 18 kts 71°
2026-04-26 17:32 46.78444 23.67864 1042 ft 22 kts 70°
2026-04-26 17:33 46.78493 23.68077 1042 ft 18 kts 71°
2026-04-26 17:33 46.78515 23.68233 1042 ft 10 kts 118°
2026-04-26 17:33 46.78479 23.68274 1042 ft 7 kts 115°
2026-04-26 17:34 46.78502 23.68506 1042 ft 16 kts 78°
2026-04-26 17:34 46.78500 23.68624 1042 ft 9 kts 144°
2026-04-26 17:34 46.78431 23.68659 1042 ft 12 kts 152°
2026-04-26 17:34 46.78408 23.68749 1042 ft 2 kts 135°
2026-04-26 17:35 46.78386 23.68747 1042 ft 5 kts 180°
2026-04-26 17:35 46.78355 23.68751 1042 ft 1 kts 172°